Hourly Weather Roundup
Issued by NWS Central Illinois

Home | Current Version | Previous Version | Text Only | Print | Product List | Glossary On
Versions: 1 2 3 4 5 6 7 8 9 10 11 12 13 14 15 16 17 18 19 20 21 22 23 24 25 26 27 28 29 30 31 32 33 34 35 36 37 38 39 40 41 42 43 44 45 46 47 48 49 50
000
NZUS43 KILX 071910
HWRILX

AREA WEATHER ROUNDUP
NATIONAL WEATHER SERVICE, LINCOLN IL
100 PM CST WED DEC 07 2016


CITY           SKY/WX    TMP DP  RH WIND       PRES   REMARKS
BLOOMINGTON    MOSUNNY   33  21  61 W13       30.13F WCI  24
CHAMPAIGN      PTSUNNY   33  22  63 W12       30.16S WCI  24
DANVILLE       MOSUNNY   34  22  63 W8        30.12R WCI  27
DECATUR        CLOUDY    34  20  56 W13       30.17F WCI  25
EFFINGHAM      CLOUDY    36  23  59 W8        30.20F WCI  29
FLORA          CLOUDY    38  23  55 NW6       30.20F WCI  33
GALESBURG      PTSUNNY   29  19  66 W16       30.17S WCI  18
JACKSONVILLE   CLOUDY    32  19  58 W10       30.20S WCI  24
LACON          CLOUDY    29  18  63 W9        30.14F WCI  21
LAWRENCEVILLE  CLOUDY    37  22  54 NW8       30.19F WCI  31
LITCHFIELD     CLOUDY    32  20  62 W9        30.20S WCI  24
$$


CITY           SKY/WX    TMP DP  RH WIND       PRES   REMARKS
LINCOLN        CLOUDY    34  21  58 W6        30.18S WCI  29
MACOMB         MOSUNNY   30  20  64 W13       30.21F WCI  20
MATTOON        CLOUDY    33  20  58 W12       30.17R WCI  24
MT CARMEL AP   CLOUDY    36  24  63 W5        30.19S WCI  32
OLNEY-NOBLE AP CLOUDY    36  25  64 W5        30.20S WCI  32
PARIS          CLOUDY    33  25  70 W12       30.17S WCI  25
PEORIA         CLOUDY    31  18  58 W10       30.17F WCI  22
PONTIAC        PTSUNNY   32  25  76 W12       30.14F WCI  23
RANTOUL        PTSUNNY   35  26  70 W12       30.14S WCI  26
SPRINGFIELD    MOSUNNY   34  21  59 W13       30.19F WCI  25
TAYLORVILLE    PTSUNNY   33  21  61 W10       30.19F WCI  25
$$

...REGIONAL REPORTS...


CITY           SKY/WX    TMP DP  RH WIND       PRES   REMARKS
CHICAGO O`HARE PTSUNNY   27  18  69 W16       30.07F WCI  15
KANKAKEE       CLOUDY    30  23  74 W12G17    30.13F WCI  21
MOLINE         PTSUNNY   28  17  63 W12       30.16R WCI  18
MOUNT STERLING CLOUDY    32  17  52 W10       30.20S WCI  24
MOUNT VERNON   NOT AVBL
PITTSFIELD     CLOUDY    33  18  53 W9        30.22S WCI  25
QUINCY         CLOUDY    32  16  51 W13       30.21F WCI  22
ROCKFORD       CLOUDY    25  16  68 W17       30.10F WCI  12
$$


CITY           SKY/WX    TMP DP  RH WIND       PRES   REMARKS
BURLINGTON     PTSUNNY   29  17  61 W8        30.19F WCI  21
CEDAR RAPIDS   MOSUNNY   21  16  81 W20       30.15S WCI   6
DES MOINES     CLOUDY    25  10  53 NW15      30.23S WCI  13
KIRKSVILLE     CLOUDY    29  12  49 NW12      30.24S WCI  19
OTTUMWA        MOSUNNY   26  11  52 W14       30.22R WCI  14
ST LOUIS       CLOUDY    39  16  39 W9        30.22F WCI  33
$$


CITY           SKY/WX    TMP DP  RH WIND       PRES   REMARKS
TERRE HAUTE    CLOUDY    36  20  52 SW9       30.16F WCI  29
EVANSVILLE     CLOUDY    42  20  41 NW3       30.19F
INDIANAPOLIS   PTSUNNY   36  22  56 SW10      30.12F WCI  28
LAFAYETTE      MOSUNNY   33  22  63 W10       30.13S WCI  25
MADISON        PTSUNNY   22  13  68 W7G18     30.03S WCI  13
MILWAUKEE      CLOUDY    28  15  58 W15G28    30.00S WCI  16
$$






USA.gov is the U.S. government's official web portal to all federal, state and local government web resources and services.